Weather in Tisul

Russia / Kemerovo Oblast     56°04′22″N   88°41′09″E
temp.,
°C
wind,
m/s
gust,
m/s
humid.,
%
clouds,
%
prec.,
mm/h
press.,
hPa
HPBL,
m
29 january, sat
sat2901:00−18sse1197100 0.0 103429
04:00−19sse219783 0.0 103421
07:00−20se219899 0.0 103416
10:00−20sse229757 0.0 103429
13:00−12sse1285100 0.0 1033125
16:00−12se119216 0.0 103326
19:00−20se21975 0.0 103510
22:00−21sse119818 0.0 10369
30 january, sun
sun3001:00−22se1110028 0.0 103610
04:00−23sse21100100 0.0 103614
07:00−22se221009 0.0 103613
10:00−21se229912 0.0 103628
13:00−12se22865 0.0 1034124
16:00−12ese24917 0.0 1033115
19:00−19ese239675 0.0 103439
22:00−21ese239766 0.0 103434
31 january, mon
mon3101:00−22ese229647 0.0 103328
04:00−23ese22965 0.0 103327
07:00−23ese22975 0.0 103324
10:00−21se22975 0.0 103437
13:00−11ese12855 0.0 103299
16:00−10ese22915 0.0 103262
19:00−19ese21985 0.0 103412
22:00−21se2210018 0.0 103413
1 february, tue
tue101:00−22sse2110038 0.0 103411
04:00−22se2110084 0.0 103511
07:00−22se1110099 0.0 103611
10:00−19sse2110077 0.0 103622
13:00−9s118962 0.0 1035116
16:00−9se119486 0.0 103631
19:00−16se2198100 0.0 103813
22:00−18se1199100 0.0 103810
2 february, wed
wed201:00−16se119894 0.0 103813
04:00−19se119992 0.0 10389
07:00−18se1198100 0.0 103815
10:00−15se1296100 0.0 103837
13:00−10ese1190100 0.0 1037134
16:00−10ese239365 0.0 103798
19:00−17ese219847 0.0 103811
22:00−20se111009 0.0 10389